Time,TemperatureF,DewpointF,PressureIn,WindDirection,WindDirectionDegrees,WindSpeedMPH,WindSpeedGustMPH,Humidity,HourlyPrecipIn,Conditions,Clouds,dailyrainin,SoftwareType,DateUTC
2013-11-08 00:01:00,30.0,14.0,30.19,ENE,74,4.0,4.0,50,-99.99,,,0.00,,2013-11-08 07:01:00,
2013-11-08 00:21:00,30.0,14.0,30.18,ENE,74,5.0,6.0,50,-99.99,,,0.00,,2013-11-08 07:21:00,
2013-11-08 00:42:00,30.0,13.0,30.18,ENE,74,6.0,7.0,49,-99.99,,,0.00,,2013-11-08 07:42:00,
2013-11-08 00:52:00,30.0,13.0,30.16,ENE,74,6.0,8.0,49,-99.99,,,0.00,,2013-11-08 07:52:00,
2013-11-08 01:02:00,30.0,13.0,30.16,ENE,74,6.0,8.0,49,-99.99,,,0.00,,2013-11-08 08:02:00,
2013-11-08 01:22:00,31.0,12.0,30.16,ENE,75,5.0,7.0,45,-99.99,,,0.00,,2013-11-08 08:22:00,
2013-11-08 01:42:00,32.0,13.0,30.15,ENE,75,5.0,7.0,43,-99.99,,,0.00,,2013-11-08 08:42:00,
2013-11-08 01:52:00,32.0,13.0,30.12,ESE,114,5.0,11.0,44,-99.99,,,0.00,,2013-11-08 08:52:00,
2013-11-08 02:03:00,32.0,13.0,30.12,ESE,114,5.0,11.0,44,-99.99,,,0.00,,2013-11-08 09:03:00,
2013-11-08 02:22:00,36.0,13.0,30.08,ESE,116,3.0,9.0,38,-99.99,,,0.00,,2013-11-08 09:22:00,
2013-11-08 04:12:00,35.0,12.0,30.07,SSW,194,1.0,13.0,37,-99.99,,,0.00,,2013-11-08 11:12:00,
2013-11-08 04:22:00,38.0,13.0,30.05,SSW,194,2.0,4.0,36,-99.99,,,0.00,,2013-11-08 11:22:00,
2013-11-08 04:42:00,40.0,13.0,30.04,SSW,194,2.0,6.0,33,-99.99,,,0.00,,2013-11-08 11:42:00,
2013-11-08 04:52:00,41.0,13.0,30.07,SSW,193,0.0,10.0,31,-99.99,,,0.00,,2013-11-08 11:52:00,
2013-11-08 05:11:00,42.0,14.0,30.08,SSW,198,5.0,12.0,31,-99.99,,,0.00,,2013-11-08 12:11:00,
2013-11-08 09:23:00,55.0,23.0,30.12,South,190,3.0,14.0,28,-99.99,,,0.00,,2013-11-08 16:23:00,
2013-11-08 09:42:00,56.0,24.0,30.12,SW,215,10.0,17.0,29,-99.99,,,0.00,,2013-11-08 16:42:00,
2013-11-08 09:53:00,56.0,23.0,30.12,WSW,244,3.0,16.0,27,-99.99,,,0.00,,2013-11-08 16:53:00,
2013-11-08 10:02:00,56.0,23.0,30.12,WSW,244,3.0,16.0,27,-99.99,,,0.00,,2013-11-08 17:02:00,
2013-11-08 10:22:00,57.0,23.0,30.11,SW,232,10.0,20.0,26,-99.99,,,0.00,,2013-11-08 17:22:00,
2013-11-08 10:33:00,57.0,23.0,30.11,SW,232,10.0,20.0,26,-99.99,,,0.00,,2013-11-08 17:33:00,
2013-11-08 10:43:00,57.0,23.0,30.11,SW,232,10.0,20.0,26,-99.99,,,0.00,,2013-11-08 17:43:00,
2013-11-08 10:53:00,59.0,20.0,30.10,SSW,213,10.0,14.0,22,-99.99,,,0.00,,2013-11-08 17:53:00,
2013-11-08 11:02:00,59.0,20.0,30.10,SSW,213,10.0,14.0,22,-99.99,,,0.00,,2013-11-08 18:02:00,
2013-11-08 11:22:00,59.0,17.0,30.10,West,261,11.0,16.0,19,-99.99,,,0.00,,2013-11-08 18:22:00,
2013-11-08 11:42:00,59.0,22.0,30.08,South,180,14.0,20.0,23,-99.99,,,0.00,,2013-11-08 18:42:00,
2013-11-08 11:52:00,60.0,20.0,30.07,SSW,203,19.0,23.0,21,-99.99,,,0.00,,2013-11-08 18:52:00,
2013-11-08 12:01:00,60.0,20.0,30.07,SSW,203,19.0,23.0,21,-99.99,,,0.00,,2013-11-08 19:01:00,
2013-11-08 12:21:00,60.0,20.0,30.07,SW,231,11.0,24.0,21,-99.99,,,0.00,,2013-11-08 19:21:00,
2013-11-08 12:42:00,61.0,20.0,30.05,South,188,11.0,24.0,20,-99.99,,,0.00,,2013-11-08 19:42:00,
2013-11-08 12:52:00,62.0,20.0,30.01,South,184,20.0,26.0,20,-99.99,,,0.00,,2013-11-08 19:52:00,
2013-11-08 13:02:00,62.0,20.0,30.01,South,184,20.0,26.0,20,-99.99,,,0.00,,2013-11-08 20:02:00,
2013-11-08 13:22:00,62.0,21.0,29.99,SSW,209,11.0,19.0,20,-99.99,,,0.00,,2013-11-08 20:22:00,
2013-11-08 13:42:00,63.0,21.0,29.97,South,190,15.0,20.0,20,-99.99,,,0.00,,2013-11-08 20:42:00,
2013-11-08 13:53:00,63.0,21.0,29.92,South,184,20.0,20.0,20,-99.99,,,0.00,,2013-11-08 20:53:00,
2013-11-08 14:02:00,63.0,21.0,29.92,South,184,20.0,20.0,20,-99.99,,,0.00,,2013-11-08 21:02:00,
2013-11-08 14:22:00,63.0,25.0,29.91,SSE,165,9.0,20.0,23,-99.99,,,0.00,,2013-11-08 21:22:00,
2013-11-08 14:44:00,62.0,24.0,29.92,South,178,20.0,24.0,23,-99.99,,,0.00,,2013-11-08 21:44:00,
2013-11-08 14:54:00,63.0,24.0,29.84,South,187,14.0,22.0,22,-99.99,,,0.00,,2013-11-08 21:54:00,
2013-11-08 15:04:00,63.0,24.0,29.84,South,187,14.0,22.0,22,-99.99,,,0.00,,2013-11-08 22:04:00,
2013-11-08 15:23:00,63.0,24.0,29.83,SSW,202,14.0,21.0,22,-99.99,,,0.00,,2013-11-08 22:23:00,
2013-11-08 15:43:00,63.0,25.0,29.82,South,180,11.0,21.0,23,-99.99,,,0.00,,2013-11-08 22:43:00,
2013-11-08 15:53:00,63.0,25.0,29.90,South,175,16.0,20.0,24,-99.99,,,0.00,,2013-11-08 22:53:00,
2013-11-08 16:12:00,62.0,25.0,29.89,SSE,164,11.0,25.0,24,-99.99,,,0.00,,2013-11-08 23:12:00,
2013-11-08 16:22:00,61.0,24.0,29.91,South,175,13.0,23.0,24,-99.99,,,0.00,,2013-11-08 23:22:00,
2013-11-08 16:42:00,61.0,24.0,29.91,South,176,9.0,23.0,24,-99.99,,,0.00,,2013-11-08 23:42:00,
2013-11-08 16:53:00,60.0,24.0,29.84,South,180,9.0,20.0,25,-99.99,,,0.00,,2013-11-08 23:53:00,
2013-11-08 17:02:00,60.0,24.0,29.84,South,180,9.0,20.0,25,-99.99,,,0.00,,2013-11-09 00:02:00,
2013-11-08 17:21:00,58.0,23.0,29.86,South,180,10.0,12.0,26,-99.99,,,0.00,,2013-11-09 00:21:00,
2013-11-08 17:42:00,57.0,22.0,29.86,South,183,7.0,14.0,26,-99.99,,,0.00,,2013-11-09 00:42:00,
2013-11-08 17:52:00,56.0,22.0,29.87,South,190,6.0,15.0,26,-99.99,,,0.00,,2013-11-09 00:52:00,
2013-11-08 18:02:00,56.0,22.0,29.87,South,190,6.0,15.0,26,-99.99,,,0.00,,2013-11-09 01:02:00,
2013-11-08 18:22:00,56.0,21.0,29.88,SSW,202,12.0,19.0,26,-99.99,,,0.00,,2013-11-09 01:22:00,
2013-11-08 18:42:00,56.0,21.0,29.89,SW,232,10.0,21.0,26,-99.99,,,0.00,,2013-11-09 01:42:00,
2013-11-08 18:52:00,55.0,20.0,29.90,SW,229,9.0,16.0,25,-99.99,,,0.00,,2013-11-09 01:52:00,
2013-11-08 19:11:00,55.0,20.0,29.90,SW,217,4.0,16.0,26,-99.99,,,0.00,,2013-11-09 02:11:00,
2013-11-08 19:22:00,54.0,21.0,29.90,SW,222,5.0,15.0,27,-99.99,,,0.00,,2013-11-09 02:22:00,
2013-11-08 19:42:00,53.0,21.0,29.92,SW,226,12.0,15.0,28,-99.99,,,0.00,,2013-11-09 02:42:00,
2013-11-08 19:52:00,52.0,20.0,29.91,SW,227,0.0,12.0,28,-99.99,,,0.00,,2013-11-09 02:52:00,
2013-11-08 20:02:00,52.0,20.0,29.91,SW,227,0.0,12.0,28,-99.99,,,0.00,,2013-11-09 03:02:00,
2013-11-08 20:21:00,50.0,20.0,29.92,SW,227,0.0,12.0,30,-99.99,,,-99.99,,2013-11-09 03:21:00,
2013-11-08 20:44:00,48.0,19.0,29.94,SW,228,0.0,4.0,32,-99.99,,,0.00,,2013-11-09 03:44:00,
2013-11-08 20:54:00,47.0,20.0,29.94,SW,228,0.0,3.0,33,-99.99,,,0.00,,2013-11-09 03:54:00,
2013-11-08 21:04:00,47.0,20.0,29.94,SW,228,0.0,3.0,33,-99.99,,,0.00,,2013-11-09 04:04:00,
2013-11-08 21:23:00,46.0,19.0,29.95,SW,227,2.0,7.0,34,-99.99,,,0.00,,2013-11-09 04:23:00,
2013-11-08 21:42:00,46.0,20.0,29.95,SW,228,3.0,7.0,35,-99.99,,,0.00,,2013-11-09 04:42:00,
2013-11-08 21:53:00,46.0,21.0,29.94,SW,228,2.0,5.0,37,-99.99,,,-99.99,,2013-11-09 04:53:00,
2013-11-08 22:03:00,46.0,21.0,29.94,SW,228,2.0,5.0,37,-99.99,,,-99.99,,2013-11-09 05:03:00,
2013-11-08 22:22:00,44.0,21.0,29.96,SW,227,0.0,2.0,39,-99.99,,,0.00,,2013-11-09 05:22:00,
2013-11-08 22:43:00,43.0,21.0,29.98,SW,227,1.0,6.0,40,-99.99,,,0.00,,2013-11-09 05:43:00,
2013-11-08 22:53:00,44.0,21.0,29.95,SW,227,0.0,4.0,40,-99.99,,,0.00,,2013-11-09 05:53:00,
2013-11-08 23:03:00,44.0,21.0,29.95,SW,227,0.0,4.0,40,-99.99,,,0.00,,2013-11-09 06:03:00,
2013-11-08 23:22:00,46.0,22.0,29.93,ESE,119,1.0,12.0,39,-99.99,,,0.00,,2013-11-09 06:22:00,
2013-11-08 23:43:00,44.0,21.0,29.95,ESE,119,0.0,12.0,41,-99.99,,,0.00,,2013-11-09 06:43:00,
2013-11-08 23:54:00,44.0,22.0,29.95,ESE,119,2.0,6.0,42,-99.99,,,0.00,,2013-11-09 06:54:00,